GW6788 Weather Reports


time (UTC)temp
C
wind
direction
speed
KPH
gust
KPH
rain 1hr
cm
rain 24hr
cm
rain mn
cm
humidity
%
barometer
mb
20260509214010 22 263 4.8 19.3 0.00 0.00 0.00 63 1010.6
20260509213507 22 288 9.7 20.9 0.00 0.00 0.00 63 1010.5
20260509213028 22 198 11.3 24.1 0.00 0.00 0.00 63 1010.5
20260509212503 22 222 9.7 24.1 0.00 0.00 0.00 64 1010.5
20260509212004 22 211 12.9 20.9 0.00 0.00 0.00 63 1010.6
20260509211516 22 251 9.7 17.7 0.00 0.00 0.00 63 1010.4
20260509211007 22 221 8.0 19.3 0.00 0.00 0.00 62 1010.4
20260509210507 22 188 4.8 19.3 0.00 0.00 0.00 62 1010.5
20260509210018 22 255 9.7 19.3 0.00 0.00 0.00 62 1010.4
20260509205506 22 267 9.7 17.7 0.00 0.00 0.00 60 1010.2
20260509205007 22 236 8.0 17.7 0.00 0.00 0.00 60 1010.3
20260509204521 22 250 8.0 22.5 0.00 0.00 0.00 61 1010.4
20260509204012 22 270 11.3 22.5 0.00 0.00 0.00 60 1010.4
20260509203507 23 260 8.0 17.7 0.00 0.00 0.00 59 1010.3
20260509203025 23 254 9.7 17.7 0.00 0.00 0.00 59 1010.4
20260509202513 23 253 9.7 17.7 0.00 0.00 0.00 59 1010.4
20260509202013 23 193 11.3 19.3 0.00 0.00 0.00 58 1010.4
20260509201507 22 270 4.8 22.5 0.00 0.00 0.00 61 1010.3
20260509201003 22 231 14.5 24.1 0.00 0.00 0.00 60 1010.3
20260509200503 22 251 12.9 20.9 0.00 0.00 0.00 60 1010.5
20260509200017 22 217 6.4 22.5 0.00 0.00 0.00 61 1010.6
20260509195504 22 221 9.7 22.5 0.00 0.00 0.00 60 1010.6
20260509195005 22 248 11.3 22.5 0.00 0.00 0.00 62 1010.7
20260509194520 22 263 11.3 20.9 0.00 0.00 0.00 61 1010.7
20260509194009 22 270 14.5 22.5 0.00 0.00 0.00 61 1010.6
20260509193509 22 275 9.7 22.5 0.00 0.00 0.00 61 1010.8
20260509193026 22 218 11.3 19.3 0.00 0.00 0.00 61 1010.6
20260509192508 22 247 9.7 22.5 0.00 0.00 0.00 61 1010.7
20260509192008 22 232 4.8 22.5 0.00 0.00 0.00 62 1010.8
20260509191528 22 160 11.3 24.1 0.00 0.00 0.00 61 1010.6
20260509191008 22 259 12.9 24.1 0.00 0.00 0.00 62 1010.6
20260509190503 22 244 9.7 24.1 0.00 0.00 0.00 61 1010.8
20260509190013 22 264 11.3 24.1 0.00 0.00 0.00 62 1010.9
20260509185506 21 176 11.3 22.5 0.00 0.00 0.00 64 1010.9
20260509185008 21 228 9.7 22.5 0.00 0.00 0.00 63 1011.1
20260509184529 22 259 11.3 19.3 0.00 0.00 0.00 63 1011.2
20260509184007 21 201 8.0 16.1 0.00 0.00 0.00 63 1011.2
20260509183508 22 279 8.0 16.1 0.00 0.00 0.00 61 1011.2
20260509183024 21 183 9.7 17.7 0.00 0.00 0.00 63 1011.3
20260509182509 22 233 9.7 17.7 0.00 0.00 0.00 64 1011.3
20260509182003 22 285 12.9 19.3 0.00 0.00 0.00 63 1011.5
20260509181510 21 308 4.8 20.9 0.00 0.00 0.00 63 1011.4
20260509181004 21 277 9.7 20.9 0.00 0.00 0.00 65 1011.5
20260509180504 21 275 8.0 17.7 0.00 0.00 0.00 66 1011.5
20260509180011 20 272 6.4 22.5 0.00 0.00 0.00 67 1011.7
20260509175504 20 268 14.5 22.5 0.00 0.00 0.00 67 1011.7
20260509175011 20 278 6.4 12.9 0.00 0.00 0.00 68 1011.7
20260509174515 20 223 6.4 16.1 0.00 0.00 0.00 69 1011.8
20260509174005 20 228 8.0 16.1 0.00 0.00 0.00 69 1012.0
20260509173507 20 223 8.0 14.5 0.00 0.00 0.00 68 1012.1
20260509173050 20 192 6.4 14.5 0.00 0.00 0.00 67 1012.1
20260509172509 20 251 6.4 14.5 0.00 0.00 0.00 68 1012.1
20260509172008 20 225 6.4 14.5 0.00 0.00 0.00 67 1012.1
20260509171530 20 228 6.4 20.9 0.00 0.00 0.00 67 1012.2
20260509171003 20 225 6.4 20.9 0.00 0.00 0.00 66 1012.3
20260509170504 20 263 14.5 20.9 0.00 0.00 0.00 66 1012.2
20260509170014 20 195 8.0 20.9 0.00 0.00 0.00 68 1012.3
20260509165504 20 239 9.7 20.9 0.00 0.00 0.00 68 1012.4
20260509165003 20 254 8.0 22.5 0.00 0.00 0.00 68 1012.4
20260509164516 20 213 9.7 22.5 0.00 0.00 0.00 68 1012.3
20260509164007 19 222 11.3 20.9 0.00 0.00 0.00 68 1012.3
20260509163507 19 262 11.3 22.5 0.00 0.00 0.00 68 1012.5
20260509163023 19 204 11.3 22.5 0.00 0.00 0.00 68 1012.5
20260509162506 19 272 9.7 24.1 0.00 0.00 0.00 69 1012.7
20260509162009 19 240 11.3 24.1 0.00 0.00 0.00 69 1012.8
20260509161524 19 259 8.0 16.1 0.00 0.00 0.00 69 1012.8
20260509161011 19 249 11.3 17.7 0.00 0.00 0.00 68 1012.9
20260509160506 19 256 12.9 20.9 0.00 0.00 0.00 68 1013.1
20260509160026 19 280 9.7 22.5 0.00 0.00 0.00 67 1013.2
20260509155502 19 280 12.9 25.7 0.00 0.00 0.00 68 1013.2
20260509155005 19 261 11.3 25.7 0.00 0.00 0.00 67 1013.1
20260509154514 19 297 14.5 25.7 0.00 0.00 0.00 67 1012.9
20260509154004 19 230 12.9 22.5 0.00 0.00 0.00 67 1013.0
20260509153503 19 247 12.9 22.5 0.00 0.00 0.00 66 1013.1
20260509153030 19 198 11.3 19.3 0.00 0.00 0.00 68 1013.0
20260509152507 19 209 11.3 19.3 0.00 0.00 0.00 68 1012.9
20260509152007 19 232 8.0 14.5 0.00 0.00 0.00 70 1012.8
20260509151523 19 263 8.0 14.5 0.00 0.00 0.00 70 1012.7
20260509151013 18 231 8.0 14.5 0.00 0.00 0.00 71 1012.7
20260509150509 18 236 9.7 17.7 0.00 0.00 0.00 71 1012.8
20260509150025 18 247 9.7 19.3 0.00 0.00 0.00 71 1012.7
20260509145507 18 233 12.9 19.3 0.00 0.00 0.00 71 1012.9
20260509145007 18 237 11.3 17.7 0.00 0.00 0.00 70 1012.9
20260509144510 18 217 9.7 20.9 0.00 0.00 0.00 71 1012.9
20260509144003 18 223 11.3 20.9 0.00 0.00 0.00 71 1012.9
20260509143506 18 240 6.4 17.7 0.00 0.00 0.00 72 1012.9
20260509143017 18 225 6.4 17.7 0.00 0.00 0.00 75 1012.9
20260509142504 17 236 1.6 17.7 0.00 0.00 0.00 75 1013.0
20260509142008 17 232 8.0 12.9 0.00 0.00 0.00 76 1012.9
20260509141521 17 259 4.8 11.3 0.00 0.00 0.00 76 1012.9
20260509141011 17 279 8.0 11.3 0.00 0.00 0.00 77 1012.8
20260509140505 16 237 4.8 11.3 0.00 0.00 0.00 78 1012.7
20260509140025 16 209 3.2 11.3 0.00 0.00 0.00 77 1012.6
20260509135508 16 150 4.8 9.7 0.00 0.00 0.00 79 1012.6
20260509135009 16 157 4.8 9.7 0.00 0.00 0.00 80 1012.8
20260509134527 15 151 1.6 8.0 0.00 0.00 0.00 81 1013.0
20260509134009 15 154 4.8 8.0 0.00 0.00 0.00 81 1013.2
20260509133504 15 234 3.2 8.0 0.00 0.00 0.00 81 1013.3
20260509133016 15 211 3.2 8.0 0.00 0.00 0.00 81 1013.1
20260509132504 15 308 4.8 8.0 0.00 0.00 0.00 81 1013.2
20260509132006 15 177 3.2 8.0 0.00 0.00 0.00 82 1013.4
20260509131519 14 209 3.2 8.0 0.00 0.00 0.00 82 1013.5
20260509131005 14 191 3.2 8.0 0.00 0.00 0.00 81 1013.6
20260509130509 14 148 1.6 8.0 0.00 0.00 0.00 82 1013.5
20260509130051 13 202 3.2 6.4 0.00 0.00 0.00 82 1013.5
20260509125506 13 263 1.6 6.4 0.00 0.00 0.00 81 1013.5
20260509125008 13 273 3.2 4.8 0.00 0.00 0.00 82 1013.9
20260509124532 13 275 1.6 4.8 0.00 0.00 0.00 82 1014.0
20260509124009 13 220 3.2 4.8 0.00 0.00 0.00 82 1014.0
20260509123510 13 289 1.6 4.8 0.00 0.00 0.00 82 1014.2
20260509123040 13 278 1.6 4.8 0.00 0.00 0.00 82 1014.2
20260509122508 12 272 1.6 4.8 0.00 0.00 0.00 83 1014.2
20260509122006 12 266 1.6 4.8 0.00 0.00 0.00 83 1014.1
20260509121517 12 251 1.6 4.8 0.00 0.00 0.00 83 1014.0
20260509121008 12 180 0.0 9.7 0.00 0.00 0.00 83 1013.9
20260509120507 12 197 3.2 9.7 0.00 0.00 0.00 83 1013.8
20260509120031 12 237 1.6 8.0 0.00 0.00 0.00 84 1013.9
20260509115507 12 202 3.2 6.4 0.00 0.00 0.00 84 1013.8
20260509115009 12 204 1.6 6.4 0.00 0.00 0.00 84 1013.9
20260509114526 12 299 1.6 6.4 0.00 0.00 0.00 85 1013.7
20260509114007 11 211 3.2 8.0 0.00 0.00 0.00 85 1013.6
20260509113510 11 210 4.8 8.0 0.00 0.00 0.00 87 1013.4
20260509113028 11 213 1.6 4.8 0.00 0.00 0.00 87 1013.2
20260509112510 11 171 1.6 3.2 0.00 0.00 0.00 87 1013.3
20260509112008 11 263 0.0 3.2 0.00 0.00 0.00 87 1013.4
20260509111527 11 264 1.6 3.2 0.00 0.00 0.00 87 1013.5
20260509111007 11 246 1.6 3.2 0.00 0.00 0.00 87 1013.4
20260509110506 10 144 0.0 4.8 0.00 0.00 0.00 87 1013.3
20260509110026 10 189 1.6 4.8 0.00 0.00 0.00 88 1013.4
20260509105508 10 152 1.6 3.2 0.00 0.00 0.00 88 1013.4
20260509105009 10 195 1.6 3.2 0.00 0.00 0.00 88 1013.5
20260509104524 10 242 0.0 3.2 0.00 0.00 0.00 87 1013.4
20260509104007 10 242 0.0 3.2 0.00 0.00 0.00 87 1013.5
20260509103507 10 242 0.0 3.2 0.00 0.00 0.00 87 1013.4
20260509103026 10 242 0.0 3.2 0.00 0.00 0.00 88 1013.3
20260509102509 10 240 0.0 3.2 0.00 0.00 0.00 88 1013.2
20260509102010 10 240 0.0 3.2 0.00 0.00 0.00 88 1013.1
20260509101536 10 240 0.0 3.2 0.00 0.00 0.00 88 1013.1
20260509101008 10 36 0.0 3.2 0.00 0.00 0.00 88 1013.1
20260509100508 10 39 0.0 3.2 0.00 0.00 0.00 88 1013.0
20260509100030 10 6 0.0 3.2 0.00 0.00 0.00 87 1013.0
20260509095504 10 31 0.0 3.2 0.00 0.00 0.00 87 1013.0
20260509095005 10 31 0.0 3.2 0.00 0.00 0.00 87 1012.9
20260509094508 10 36 0.0 3.2 0.00 0.00 0.00 87 1012.9
20260509094003 10 36 0.0 3.2 0.00 0.00 0.00 87 1012.9
20260509093503 10 36 0.0 3.2 0.00 0.00 0.00 86 1012.9
20260509093006 11 34 1.6 3.2 0.00 0.00 0.00 86 1012.9
20260509092504 11 98 0.0 3.2 0.00 0.00 0.00 86 1012.9
20260509092003 11 206 0.0 3.2 0.00 0.00 0.00 86 1012.9
20260509091507 11 192 0.0 3.2 0.00 0.00 0.00 85 1012.8
20260509091004 11 190 0.0 3.2 0.00 0.00 0.00 85 1012.9
20260509090504 11 190 0.0 3.2 0.00 0.00 0.00 86 1013.0
20260509090008 11 183 0.0 3.2 0.00 0.00 0.00 86 1013.1
20260509085502 11 103 0.0 3.2 0.00 0.00 0.00 86 1013.1
20260509085007 11 58 0.0 3.2 0.00 0.00 0.00 86 1013.3
20260509084508 11 56 0.0 3.2 0.00 0.00 0.00 86 1013.3
20260509084004 11 38 0.0 3.2 0.00 0.00 0.00 85 1013.3
20260509083504 11 38 0.0 3.2 0.00 0.00 0.00 85 1013.1
20260509083009 11 41 1.6 3.2 0.00 0.00 0.00 86 1013.1
20260509082504 11 43 1.6 4.8 0.00 0.00 0.00 85 1013.1
20260509082006 11 45 3.2 4.8 0.00 0.00 0.00 85 1012.9
20260509081508 11 29 1.6 3.2 0.00 0.00 0.00 85 1012.9
20260509081004 11 29 0.0 3.2 0.00 0.00 0.00 85 1012.8
20260509080503 11 29 1.6 3.2 0.00 0.00 0.00 85 1012.8
20260509080010 12 327 0.0 3.2 0.00 0.00 0.00 84 1012.9
20260509075503 12 327 0.0 3.2 0.00 0.00 0.00 84 1013.0
20260509075006 12 13 0.0 3.2 0.00 0.00 0.00 83 1013.1
20260509074508 12 29 1.6 3.2 0.00 0.00 0.00 83 1013.1
20260509074003 12 328 0.0 3.2 0.00 0.00 0.00 83 1013.1
20260509073503 12 329 0.0 3.2 0.00 0.00 0.00 82 1013.1
20260509073010 12 36 0.0 3.2 0.00 0.00 0.00 82 1013.2
20260509072504 12 36 0.0 3.2 0.00 0.00 0.00 82 1013.4
20260509072003 12 55 3.2 3.2 0.00 0.00 0.00 82 1013.4
20260509071508 12 31 0.0 3.2 0.00 0.00 0.00 82 1013.5
20260509071005 12 29 0.0 3.2 0.00 0.00 0.00 82 1013.5
20260509070504 12 29 0.0 3.2 0.00 0.00 0.00 83 1013.6
20260509070012 12 343 0.0 3.2 0.00 0.00 0.00 83 1013.6
20260509065504 12 250 0.0 3.2 0.00 0.00 0.00 84 1013.8
20260509065003 12 250 0.0 3.2 0.00 0.00 0.00 84 1013.9
20260509064512 12 248 0.0 3.2 0.00 0.00 0.00 84 1014.0
20260509064007 12 248 0.0 0.0 0.00 0.00 0.00 84 1014.0
20260509063503 12 248 0.0 3.2 0.00 0.00 0.00 84 1014.0
20260509063013 12 248 0.0 3.2 0.00 0.00 0.00 84 1014.1
20260509062509 12 248 0.0 3.2 0.00 0.00 0.00 83 1014.1
20260509062004 12 261 0.0 3.2 0.00 0.00 0.00 83 1014.1
20260509061517 12 263 0.0 3.2 0.00 0.00 0.00 83 1014.1
20260509061004 12 263 0.0 3.2 0.00 0.00 0.00 82 1014.2
20260509060504 12 263 0.0 3.2 0.00 0.00 0.00 82 1014.3
20260509060010 12 81 0.0 3.2 0.00 0.00 0.00 82 1014.4
20260509055504 12 206 0.0 3.2 0.00 0.00 0.00 81 1014.3
20260509055003 12 206 0.0 3.2 0.00 0.00 0.00 81 1014.4
20260509054514 13 206 0.0 3.2 0.00 0.00 0.00 81 1014.5
20260509054006 13 202 0.0 3.2 0.00 0.00 0.00 80 1014.7
20260509053504 13 202 0.0 3.2 0.00 0.00 0.00 80 1014.6
20260509053016 13 208 0.0 3.2 0.00 0.00 0.00 80 1014.7
20260509052504 13 207 0.0 3.2 0.00 0.00 0.00 79 1014.6
20260509052004 13 243 0.0 3.2 0.00 0.00 0.00 79 1014.7
20260509051516 13 243 1.6 3.2 0.00 0.00 0.00 79 1014.9
20260509051007 13 248 0.0 3.2 0.00 0.00 0.00 79 1014.9
20260509050504 13 238 0.0 3.2 0.00 0.00 0.00 78 1014.9
20260509050023 13 150 0.0 3.2 0.00 0.00 0.00 78 1015.0
20260509045504 13 154 0.0 3.2 0.00 0.00 0.00 77 1015.1
20260509045005 13 180 0.0 3.2 0.00 0.00 0.00 78 1015.1
20260509044513 13 250 0.0 3.2 0.00 0.00 0.00 78 1015.1
20260509044004 13 250 0.0 3.2 0.00 0.00 0.00 77 1015.1
20260509043505 13 250 0.0 3.2 0.00 0.00 0.00 77 1015.1
20260509043018 13 250 0.0 3.2 0.00 0.00 0.00 76 1015.2
20260509042504 13 217 0.0 3.2 0.00 0.00 0.00 75 1015.2
20260509042005 14 222 0.0 3.2 0.00 0.00 0.00 75 1015.2
20260509041520 14 291 0.0 3.2 0.00 0.00 0.00 75 1015.1
20260509041005 14 291 0.0 3.2 0.00 0.00 0.00 74 1015.2
20260509040507 14 267 1.6 3.2 0.00 0.00 0.00 74 1015.3
20260509040033 15 236 0.0 3.2 0.00 0.00 0.00 72 1015.2
20260509035507 15 217 0.0 3.2 0.00 0.00 0.00 71 1015.1
20260509035005 15 233 0.0 4.8 0.00 0.00 0.00 70 1015.1
20260509034512 15 188 0.0 4.8 0.00 0.00 0.00 69 1015.2
20260509034003 15 182 3.2 4.8 0.00 0.00 0.00 68 1015.2
20260509033503 15 171 0.0 3.2 0.00 0.00 0.00 68 1015.1
20260509033015 15 143 1.6 3.2 0.00 0.00 0.00 68 1015.2
20260509032505 15 187 0.0 4.8 0.00 0.00 0.00 68 1015.1
20260509032002 15 229 1.6 4.8 0.00 0.00 0.00 67 1015.1
20260509031512 16 168 1.6 4.8 0.00 0.00 0.00 67 1015.3
20260509031003 16 193 1.6 4.8 0.00 0.00 0.00 66 1015.3
20260509030503 16 166 0.0 4.8 0.00 0.00 0.00 66 1015.2
20260509030006 16 161 1.6 4.8 0.00 0.00 0.00 66 1015.3
20260509025502 16 191 1.6 4.8 0.00 0.00 0.00 66 1015.3
20260509025002 16 191 1.6 4.8 0.00 0.00 0.00 65 1015.3
20260509024510 16 251 0.0 3.2 0.00 0.00 0.00 65 1015.3
20260509024004 16 202 0.0 4.8 0.00 0.00 0.00 65 1015.3
20260509023502 16 183 1.6 6.4 0.00 0.00 0.00 65 1015.4
20260509023014 16 195 1.6 6.4 0.00 0.00 0.00 65 1015.5
20260509022504 16 180 1.6 6.4 0.00 0.00 0.00 65 1015.4
20260509022005 16 193 3.2 6.4 0.00 0.00 0.00 64 1015.4
20260509021519 16 176 3.2 4.8 0.00 0.00 0.00 64 1015.5
20260509021002 16 206 3.2 4.8 0.00 0.00 0.00 64 1015.5
20260509020501 16 198 1.6 4.8 0.00 0.00 0.00 64 1015.4
20260509020005 16 184 1.6 3.2 0.00 0.00 0.00 64 1015.4
20260509015505 16 232 1.6 4.8 0.00 0.00 0.00 63 1015.4
20260509015003 16 199 0.0 4.8 0.00 0.00 0.00 63 1015.4
20260509014515 16 190 1.6 4.8 0.00 0.00 0.00 64 1015.5
20260509014003 17 193 1.6 3.2 0.00 0.00 0.00 62 1015.4
20260509013507 17 204 1.6 3.2 0.00 0.00 0.00 62 1015.4
20260509013011 17 211 0.0 4.8 0.00 0.00 0.00 61 1015.4
20260509012503 17 204 0.0 4.8 0.00 0.00 0.00 62 1015.2
20260509012003 17 202 1.6 3.2 0.00 0.00 0.00 61 1015.2
20260509011518 17 236 0.0 3.2 0.00 0.00 0.00 62 1015.3
20260509011004 17 234 0.0 3.2 0.00 0.00 0.00 61 1015.2
20260509010507 17 195 0.0 3.2 0.00 0.00 0.00 60 1015.2
20260509010025 17 196 0.0 3.2 0.00 0.00 0.00 60 1015.3
20260509005503 17 197 1.6 3.2 0.00 0.00 0.00 59 1015.2
20260509005002 17 230 0.0 3.2 0.00 0.00 0.00 59 1015.2
20260509004508 17 230 0.0 3.2 0.00 0.00 0.00 58 1015.2
20260509004002 17 225 0.0 4.8 0.00 0.00 0.00 57 1015.2
20260509003502 17 229 1.6 4.8 0.00 0.00 0.00 57 1015.1
20260509003011 18 215 1.6 4.8 0.00 0.00 0.00 56 1015.1
20260509002503 18 203 3.2 4.8 0.00 0.00 0.00 56 1015.0
20260509002003 18 245 1.6 4.8 0.00 0.00 0.00 55 1015.0
20260509001516 18 186 1.6 6.4 0.00 0.00 0.00 55 1015.1
20260509001003 18 218 3.2 6.4 0.00 0.00 0.00 54 1014.9
20260509000504 18 175 1.6 4.8 0.00 0.00 0.00 53 1014.9
20260509000016 18 236 1.6 4.8 0.00 0.00 0.00 53 1014.9
20260508235510 18 230 1.6 4.8 0.00 0.00 0.00 52 1014.9
20260508235008 18 237 3.2 6.4 0.00 0.00 0.00 52 1014.7
20260508234504 19 190 4.8 6.4 0.00 0.00 0.00 51 1014.8
20260508234006 19 231 3.2 4.8 0.00 0.00 0.00 50 1014.6
20260508233502 19 203 3.2 8.0 0.00 0.00 0.00 49 1014.6
20260508233008 19 252 3.2 8.0 0.00 0.00 0.00 49 1014.5
20260508232504 19 242 4.8 6.4 0.00 0.00 0.00 48 1014.7
20260508232003 19 269 3.2 6.4 0.00 0.00 0.00 48 1014.7
20260508231508 20 233 1.6 6.4 0.00 0.00 0.00 47 1014.5
20260508231006 20 227 4.8 6.4 0.00 0.00 0.00 47 1014.5
20260508230505 20 254 3.2 8.0 0.00 0.00 0.00 46 1014.5
20260508230015 20 240 4.8 11.3 0.00 0.00 0.00 46 1014.6
20260508225508 20 211 3.2 11.3 0.00 0.00 0.00 46 1014.8
20260508225004 20 261 8.0 11.3 0.00 0.00 0.00 45 1014.7
20260508224521 20 231 3.2 11.3 0.00 0.00 0.00 44 1014.7
20260508224005 20 277 4.8 14.5 0.00 0.00 0.00 45 1014.6
20260508223508 20 210 6.4 14.5 0.00 0.00 0.00 44 1014.7
20260508223008 20 260 4.8 16.1 0.00 0.00 0.00 44 1014.7
20260508222504 20 277 4.8 16.1 0.00 0.00 0.00 43 1014.6
20260508222005 20 268 8.0 17.7 0.00 0.00 0.00 43 1014.7
20260508221507 20 237 4.8 19.3 0.00 0.00 0.00 43 1014.6
20260508221006 20 259 8.0 19.3 0.00 0.00 0.00 42 1014.7
20260508220503 21 240 6.4 14.5 0.00 0.00 0.00 42 1014.8
20260508220041 21 253 6.4 20.9 0.00 0.00 0.00 42 1014.8
20260508215504 20 280 11.3 20.9 0.00 0.00 0.00 40 1014.7
20260508215005 21 210 6.4 14.5 0.00 0.00 0.00 42 1014.5
20260508214520 20 246 6.4 12.9 0.00 0.00 0.00 43 1014.4